Temperature
0 1 1 1 1 1 1 1 1 2 2 2 2 2 2 2 2 2 2 3 3 3 3 4 4 4 4 4 4 4 4 4 4 4 4 4 4 4 4 4 4 4 4 5
0 1 1 1 1 1 1 1 1 1 1 2 2 2 1 1 1 1 2 2 2 2 3 3 3 4 4 4 4 4 4 4 3 4 4 3 4 4 4 4 4 4 4 4
-0 0 1 1 1 1 1 0 1 1 1 1 1 1 1 1 1 1 1 1 2 2 2 3 3 3 3 3 4 3 3 3 3 3 3 3 3 3 3 3 3 3 3 4
-1 0 1 2 0 0 0 0 -0 -0 -0 -0 -0 0 0 1 0 1 1 1 1 2 2 2 2 3 3 3 3 3 3 3 3 3 3 3 3 3 3 3 3 3 3 3
-1 -0 0 1 0 -0 -0 -0 -1 -1 -1 -1 -1 -1 -0 1 0 0 1 1 1 1 1 2 2 2 2 2 2 3 3 2 2 2 2 2 2 2 2 2 2 2 2 2
-2 -0 1 2 0 -0 -0 -0 -1 -1 -2 -2 -1 -1 -1 0 -0 0 0 1 1 1 1 1 2 2 2 2 2 2 2 2 2 2 2 2 2 2 2 2 2 2 2 2
-2 -1 -1 -0 -1 -0 0 0 -1 -1 -1 -2 -2 -1 -1 -1 -0 -0 0 1 1 1 1 1 1 1 1 1 2 2 1 1 1 1 1 1 1 1 1 1 1 1 1 1
-3 -2 -0 -1 -1 -1 -1 -1 -1 -1 -1 -1 -1 -1 -1 -1 -1 -0 -0 -0 -0 0 0 0 0 0 1 1 1 1 1 1 1 1 1 1 1 1 1 1 1 1 0 0
-2 -1 -1 -1 -1 -0 -0 -1 -1 -1 -1 -2 -2 -2 -1 -1 -1 -1 -1 -1 -1 -1 -0 -0 -0 -0 0 0 0 0 0 0 1 0 0 0 0 0 0 0 0 -0 -0 -0
-3 -3 -2 -1 -1 -1 -1 -1 -1 -1 -1 -2 -2 -2 -2 -1 -1 -1 -1 -1 -1 -1 -1 -1 -1 -1 -1 -1 -1 -0 -0 -0 0 -0 -0 -0 -0 -0 -0 -0 -1 -1 -1 -1
-4 -3 -3 -2 -1 -1 -1 -1 -1 -2 -2 -2 -2 -2 -2 -2 -2 -2 -2 -2 -2 -2 -2 -1 -1 -1 -1 -1 -1 -1 -1 -1 -1 -1 -1 -1 -0 -0 -1 -1 -1 -1 -1 -1
-3 -2 -3 -2 -1 -1 -2 -2 -2 -2 -2 -2 -3 -3 -3 -3 -2 -2 -3 -3 -2 -2 -2 -2 -2 -2 -2 -2 -2 -2 -2 -1 -1 -1 -1 -1 -1 -1 -1 -1 -1 -1 -1 -1
-1 -1 -2 -2 -2 -2 -2 -2 -2 -2 -3 -3 -3 -3 -3 -3 -3 -3 -3 -3 -3 -3 -3 -3 -3 -2 -2 -2 -2 -2 -2 -2 -2 -2 -2 -2 -2 -2 -1 -1 -2 -2 -2 -2
-2 -2 -2 -2 -2 -2 -2 -2 -3 -3 -3 -3 -3 -3 -3 -3 -3 -3 -3 -3 -3 -3 -3 -3 -3 -3 -3 -3 -3 -2 -2 -2 -2 -3 -3 -2 -2 -2 -2 -2 -2 -2 -2 -2
-2 -2 -2 -2 -2 -3 -3 -3 -3 -3 -3 -3 -3 -3 -3 -3 -3 -3 -4 -4 -4 -4 -3 -3 -3 -3 -3 -3 -3 -3 -3 -3 -3 -3 -3 -3 -3 -3 -3 -3 -3 -3 -3 -3
-3 -3 -3 -3 -3 -3 -3 -3 -3 -3 -3 -4 -4 -4 -4 -4 -4 -4 -4 -4 -4 -4 -4 -4 -4 -4 -4 -3 -3 -3 -3 -3 -3 -3 -3 -4 -4 -4 -4 -4 -4 -4 -4 -4
-4 -4 -4 -4 -4 -3 -3 -3 -4 -4 -4 -4 -4 -4 -4 -4 -4 -4 -4 -4 -4 -4 -4 -4 -4 -4 -4 -4 -4 -4 -4 -4 -4 -4 -4 -4 -4 -4 -4 -4 -4 -4 -4 -4
-4 -4 -4 -4 -4 -4 -4 -4 -4 -4 -4 -4 -4 -4 -4 -4 -4 -4 -4 -4 -5 -4 -4 -4 -4 -4 -4 -4 -4 -4 -4 -4 -4 -4 -4 -4 -4 -4 -5 -5 -5 -5 -5 -5
-4 -4 -4 -4 -4 -4 -4 -4 -4 -4 -4 -4 -4 -4 -5 -5 -5 -5 -5 -5 -5 -5 -5 -5 -5 -5 -5 -5 -5 -5 -5 -5 -5 -5 -5 -5 -5 -5 -5 -5 -5 -5 -5 -5
-5 -5 -5 -5 -4 -5 -4 -4 -4 -4 -4 -4 -4 -5 -5 -5 -5 -5 -5 -5 -5 -5 -5 -5 -5 -5 -5 -5 -5 -5 -5 -5 -5 -5 -5 -5 -5 -5 -5 -5 -5 -5 -5 -5
-5 -5 -5 -5 -5 -5 -5 -5 -5 -5 -5 -5 -5 -5 -5 -5 -5 -6 -6 -6 -5 -5 -6 -6 -6 -6 -6 -6 -6 -6 -5 -5 -5 -6 -6 -6 -6 -6 -6 -6 -6 -6 -6 -6
-5 -5 -5 -5 -5 -5 -5 -5 -5 -5 -5 -5 -5 -5 -6 -6 -6 -6 -6 -6 -6 -6 -6 -6 -6 -6 -6 -6 -6 -6 -6 -6 -6 -6 -6 -6 -6 -6 -6 -6 -6 -6 -6 -6
-5 -5 -6 -6 -6 -6 -5 -5 -6 -6 -6 -6 -6 -6 -6 -6 -6 -6 -6 -6 -6 -6 -6 -6 -6 -6 -6 -6 -6 -6 -6 -6 -6 -6 -6 -6 -6 -6 -6 -7 -7 -7 -7 -7
-6 -6 -6 -6 -6 -6 -6 -6 -6 -6 -6 -6 -6 -6 -6 -6 -6 -6 -7 -7 -7 -7 -7 -7 -7 -7 -7 -7 -7 -7 -7 -6 -6 -6 -7 -7 -7 -7 -7 -7 -7 -7 -7 -7
-6 -6 -6 -6 -6 -6 -6 -6 -6 -6 -6 -6 -6 -6 -6 -6 -7 -7 -7 -7 -7 -7 -7 -7 -7 -7 -7 -7 -7 -7 -7 -7 -7 -7 -7 -7 -7 -7 -7 -7 -7 -7 -7 -7
-6 -7 -7 -7 -7 -7 -7 -7 -7 -7 -7 -7 -7 -7 -7 -7 -7 -7 -7 -7 -7 -7 -7 -7 -7 -7 -7 -7 -7 -7 -7 -7 -7 -7 -7 -7 -7 -7 -7 -7 -7 -7 -7 -7
-7 -7 -7 -7 -7 -7 -8 -7 -7 -7 -7 -7 -7 -7 -7 -7 -7 -7 -7 -7 -7 -7 -7 -7 -7 -7 -7 -7 -7 -7 -7 -7 -7 -7 -7 -7 -7 -7 -7 -7 -7 -7 -7 -7
Wind_Speed
7 7 5 6 7 6 7 7 7 8 8 11 7 6 5 4 4 4 5 5 4 4 5 4 3 2 1 1 1 2 3 3 3 3 3 3 3 4 4 4 4 4 4 4
4 5 5 7 9 8 8 6 8 8 10 8 5 4 4 4 4 4 4 4 5 5 5 5 3 2 2 1 1 1 2 3 2 2 3 3 4 4 4 4 4 4 4 5
4 5 4 6 7 7 5 5 6 8 7 5 5 5 5 6 5 4 5 5 6 6 5 5 4 3 2 2 1 1 1 2 2 2 3 4 4 4 4 4 4 4 3 4
2 3 5 5 1 4 4 4 5 4 4 4 5 5 6 5 4 5 6 6 7 6 5 5 3 2 2 1 0 1 1 1 1 1 3 3 4 4 3 4 4 4 3 3
1 3 7 5 2 1 3 4 2 3 5 5 5 5 5 4 4 6 6 6 5 5 4 4 3 2 1 1 0 1 1 1 1 2 2 3 3 3 3 3 3 3 3 3
2 2 5 4 2 1 2 4 3 2 3 4 4 4 5 5 7 7 7 5 4 4 3 3 3 2 1 1 1 1 2 2 2 2 2 3 3 3 3 3 3 3 3 3
4 4 7 5 3 1 2 5 4 3 3 3 3 5 7 8 7 6 6 5 4 3 3 3 3 2 1 1 2 3 2 1 1 1 2 2 2 2 3 3 3 3 3 2
3 4 7 2 2 3 4 3 3 3 3 3 5 6 6 6 6 5 5 4 4 3 4 3 2 2 2 2 3 2 1 1 1 1 1 2 3 2 3 3 4 3 3 2
7 7 4 2 3 3 2 3 3 3 4 4 5 6 6 6 6 5 4 4 4 3 4 4 3 1 2 4 3 1 1 1 0 1 1 2 3 3 3 3 3 3 3 2
5 7 5 5 4 3 3 4 5 4 4 4 5 6 6 6 5 5 5 4 4 4 4 4 4 3 3 3 2 1 1 1 0 0 0 1 2 3 3 3 3 3 3 3
6 7 6 5 5 5 4 4 4 4 4 4 4 6 5 5 5 4 4 4 4 3 4 4 4 4 4 3 2 1 1 1 1 0 0 0 1 1 2 3 3 4 4 4
7 6 5 6 4 3 3 4 4 4 5 5 4 5 5 5 4 4 4 4 4 4 4 4 4 4 4 3 1 1 1 1 1 0 0 0 1 1 2 0 0 1 1 2
6 5 5 5 4 3 4 5 5 5 5 5 5 4 4 4 4 3 3 3 3 4 4 3 3 4 4 3 2 1 1 1 1 0 1 1 1 1 1 2 3 2 1 1
4 2 4 4 4 4 5 5 4 4 4 4 4 4 4 4 4 4 4 4 3 3 3 3 3 4 4 3 2 1 1 1 0 1 1 1 1 1 1 1 1 1 1 1
4 4 5 5 4 4 4 3 3 4 5 5 4 3 4 4 4 5 4 3 3 3 3 3 3 4 4 3 2 1 1 0 1 1 1 1 1 1 1 1 1 1 1 1
5 4 3 4 4 5 4 3 4 5 5 5 4 4 4 4 4 4 4 3 2 3 3 3 3 4 3 2 1 1 1 0 0 1 1 1 1 1 1 1 1 1 1 1
3 4 4 5 6 6 5 5 5 5 5 5 5 5 4 3 3 3 4 3 3 3 3 3 3 3 3 2 1 0 0 0 0 0 1 1 1 1 1 1 1 1 1 1
5 5 5 5 6 6 6 5 5 5 5 5 4 3 3 2 3 3 3 3 3 3 3 3 3 2 2 1 1 0 0 0 1 1 0 0 1 1 1 1 2 2 1 1
4 4 4 5 4 4 4 5 5 5 5 3 3 3 3 3 3 3 3 2 2 3 4 3 3 2 2 1 1 0 0 1 1 1 1 1 1 1 1 1 1 1 1 1
4 4 4 4 4 3 4 4 4 4 4 3 2 2 2 3 2 2 2 3 3 3 3 3 2 1 1 1 1 0 0 1 1 1 1 1 1 1 1 1 1 1 1 1
4 4 4 4 4 4 4 4 3 4 3 2 2 3 3 3 3 2 2 3 4 3 2 3 2 1 1 1 1 1 1 1 1 1 1 1 1 1 1 1 1 1 1 1
4 4 5 4 4 4 4 3 3 3 3 2 2 2 2 3 3 3 3 3 4 4 3 2 1 2 2 1 0 1 1 1 1 1 1 1 1 1 1 1 1 1 1 1
4 4 4 4 4 4 4 3 3 2 2 3 3 3 3 3 2 2 3 3 2 3 2 2 2 3 2 1 1 1 1 1 1 1 1 1 1 1 1 1 1 1 1 1
4 4 4 3 2 2 4 4 3 3 3 3 3 3 2 2 2 2 3 4 5 4 2 3 3 3 2 1 1 1 0 0 0 1 1 1 1 1 1 1 1 1 1 1
4 3 3 2 2 3 4 3 3 3 2 2 3 3 2 2 2 3 2 3 4 4 2 2 2 2 1 1 0 0 0 0 1 1 1 1 1 1 1 1 1 1 1 1
3 3 3 4 3 3 2 2 2 2 2 2 2 2 2 2 2 2 2 2 3 3 2 1 1 1 1 0 0 0 0 0 1 0 0 1 1 1 1 1 1 1 1 1
3 3 2 2 2 2 2 2 2 3 2 2 3 3 2 2 2 2 2 2 2 1 1 1 1 1 0 0 0 0 0 0 0 0 0 0 1 1 1 1 1 1 1 1
Wind_Direction
261 266 252 244 249 232 220 217 224 250 254 273 285 300 307 314 329 345 346 351 351 344 332 325 322 316 283 245 214 179 175 185 197 202 189 180 181 182 178 177 181 182 181 186
286 278 263 266 262 245 238 234 238 257 272 278 289 308 316 316 325 331 329 330 329 326 322 316 312 308 304 285 244 180 185 196 201 189 183 182 183 181 174 174 175 172 179 185
274 309 326 273 248 218 218 219 210 234 250 296 322 328 322 315 316 315 313 314 314 310 310 307 304 297 282 266 244 172 188 203 196 190 190 193 189 180 176 171 165 171 182 186
284 349 255 251 260 200 213 255 238 253 280 295 285 301 310 312 309 309 309 307 305 302 304 307 303 297 283 291 217 184 199 218 205 192 194 188 178 178 178 166 169 177 181 178
209 263 279 293 280 186 203 282 260 247 288 311 322 325 320 323 321 305 302 296 294 293 295 305 311 300 321 337 300 206 222 236 228 214 199 187 182 185 180 166 170 180 175 175
193 230 253 270 288 275 120 291 280 246 278 309 346 326 300 317 321 318 314 309 306 315 323 326 321 325 348 302 283 268 260 250 228 217 200 198 192 185 174 167 175 176 177 181
213 239 265 268 294 71 149 262 286 269 269 279 273 261 283 304 310 316 323 325 330 336 331 321 322 337 324 301 277 273 275 260 236 215 205 188 171 170 167 167 163 166 172 184
187 218 258 262 118 180 238 279 281 286 282 277 284 292 297 302 310 325 334 342 344 345 334 327 335 357 330 298 288 285 274 252 222 197 195 161 154 161 161 160 159 163 165 171
204 224 261 228 228 253 258 277 284 286 290 284 292 298 306 310 319 329 333 339 342 344 334 334 337 345 313 302 312 318 330 302 254 190 186 167 163 167 164 162 167 174 177 182
261 267 270 266 264 285 281 272 282 283 287 289 290 295 304 313 319 327 331 331 336 340 333 329 331 330 309 311 326 337 325 306 312 138 127 152 161 167 173 178 182 183 188 190
262 275 297 269 247 265 281 284 294 302 296 287 292 300 302 307 308 314 322 324 331 328 323 321 329 333 328 324 338 339 313 299 291 244 176 129 140 177 190 200 198 190 192 184
244 250 245 271 270 273 280 285 288 297 303 305 296 294 302 301 303 310 318 323 327 325 321 321 329 329 324 319 312 297 300 298 284 252 175 141 110 43 15 63 243 249 176 157
249 262 253 272 283 277 276 281 281 279 280 292 295 293 299 300 305 310 312 313 309 310 311 315 325 323 320 318 312 292 260 262 244 204 177 165 145 145 89 43 55 73 103 127
261 274 282 275 274 288 290 291 292 294 291 289 292 300 303 304 310 310 304 300 305 311 311 317 323 319 320 324 326 327 308 292 209 178 167 154 166 161 139 123 70 38 34 111
274 263 257 275 288 299 300 301 303 304 305 305 303 302 299 298 297 301 307 317 324 325 321 325 323 317 321 329 332 333 325 201 156 147 138 122 125 123 125 125 127 96 50 80
295 296 283 279 285 293 296 293 290 292 293 293 295 293 290 289 295 306 316 323 323 314 312 315 310 310 319 330 341 349 338 327 185 148 138 128 131 134 141 147 152 153 166 187
277 282 277 284 286 286 281 277 275 277 283 283 282 290 299 307 320 321 320 322 313 300 299 300 303 311 320 336 353 12 25 2 17 123 154 164 168 170 170 167 174 181 199 208
253 261 259 259 268 278 284 286 285 281 277 278 282 290 288 283 287 297 311 327 337 330 318 310 313 328 344 3 21 44 67 66 81 112 127 158 168 165 167 181 186 183 191 188
287 282 277 273 272 272 279 284 285 283 284 280 272 272 275 278 281 295 314 324 320 313 313 318 328 345 343 339 4 72 96 109 99 103 123 141 101 127 147 156 154 152 156 152
299 297 290 289 289 282 282 289 289 290 285 274 269 279 293 294 294 302 310 298 286 285 298 316 325 322 314 307 357 97 143 141 138 151 151 151 149 143 141 147 145 148 160 168
294 299 299 295 293 293 291 292 292 290 293 281 258 264 277 291 295 292 296 300 304 306 309 318 329 315 305 300 346 107 133 142 160 173 169 168 168 160 157 160 164 170 168 164
286 287 290 292 295 301 307 302 289 285 289 283 271 266 276 291 296 295 281 274 292 310 322 315 311 310 330 337 70 123 136 148 177 181 180 184 182 177 175 174 180 187 174 169
282 282 285 287 288 294 306 306 293 283 277 275 270 266 266 272 272 275 297 300 297 303 316 304 305 316 331 3 89 122 137 168 192 190 192 188 186 186 184 178 182 182 177 170
277 280 282 287 293 296 299 299 296 289 282 284 279 270 263 281 299 287 279 300 313 316 316 310 316 320 336 33 85 97 122 170 203 201 194 185 176 173 171 171 175 171 165 167
268 268 271 276 275 275 279 293 302 301 300 302 303 297 279 256 265 290 295 300 313 327 328 319 325 339 5 49 74 97 158 195 198 178 174 173 171 168 165 168 167 158 159 164
260 260 258 254 255 262 271 276 281 288 293 301 307 301 296 291 280 287 297 302 304 318 326 322 322 338 12 27 300 276 225 268 289 303 187 179 172 166 164 162 155 152 149 147
267 270 274 286 281 267 264 263 264 272 270 272 291 298 301 306 307 306 305 309 313 319 325 330 335 329 340 294 219 157 70 54 22 5 95 116 123 131 141 142 142 137 133 140
Height
1472 1468 1468 1466 1465 1465 1466 1465 1465 1456 1453 1445 1443 1442 1440 1438 1435 1434 1432 1430 1429 1428 1427 1426 1425 1425 1426 1426 1426 1426 1427 1428 1429 1430 1432 1433 1434 1435 1437 1439 1440 1442 1443 1445
1472 1466 1465 1463 1459 1459 1459 1459 1458 1455 1451 1444 1443 1441 1439 1437 1435 1433 1431 1430 1429 1428 1426 1424 1423 1422 1422 1422 1423 1423 1424 1425 1426 1427 1428 1429 1430 1432 1433 1435 1437 1438 1439 1441
1472 1468 1464 1460 1455 1454 1455 1453 1453 1451 1448 1444 1443 1440 1438 1436 1434 1432 1430 1428 1427 1425 1423 1422 1421 1420 1420 1420 1419 1420 1421 1422 1423 1424 1425 1426 1427 1428 1429 1431 1433 1434 1436 1437
1475 1471 1464 1453 1451 1450 1450 1450 1449 1447 1446 1444 1442 1440 1437 1435 1433 1431 1429 1427 1425 1423 1421 1421 1420 1419 1419 1418 1418 1418 1418 1419 1419 1420 1421 1423 1424 1425 1426 1428 1429 1431 1432 1433
1477 1472 1462 1452 1450 1449 1450 1449 1446 1446 1444 1442 1440 1437 1434 1433 1432 1430 1427 1425 1423 1421 1420 1418 1418 1417 1416 1415 1415 1415 1415 1416 1417 1417 1418 1419 1420 1421 1423 1424 1426 1428 1429 1430
1477 1470 1461 1450 1448 1447 1450 1449 1444 1444 1442 1441 1440 1440 1435 1431 1430 1427 1425 1422 1421 1419 1418 1416 1415 1414 1414 1413 1412 1412 1413 1414 1414 1415 1415 1416 1417 1418 1420 1422 1423 1425 1426 1428
1476 1471 1459 1450 1447 1447 1453 1448 1443 1442 1441 1440 1439 1438 1434 1430 1427 1425 1423 1420 1418 1417 1415 1415 1414 1413 1411 1411 1410 1411 1411 1412 1412 1412 1413 1413 1414 1415 1417 1419 1420 1422 1423 1425
1474 1469 1458 1448 1447 1449 1447 1443 1441 1440 1439 1438 1436 1433 1431 1428 1425 1423 1421 1419 1417 1416 1414 1413 1412 1410 1409 1408 1409 1409 1409 1409 1409 1410 1410 1410 1411 1413 1415 1416 1417 1419 1420 1421
1461 1455 1448 1446 1445 1444 1443 1441 1439 1438 1437 1435 1433 1431 1428 1426 1424 1421 1419 1418 1416 1414 1412 1411 1410 1409 1407 1407 1407 1407 1407 1407 1407 1407 1407 1408 1409 1410 1411 1413 1414 1416 1417 1418
1456 1448 1445 1444 1443 1442 1441 1439 1438 1436 1435 1433 1431 1429 1427 1424 1422 1420 1418 1416 1414 1412 1410 1409 1408 1407 1406 1405 1405 1404 1404 1404 1404 1404 1404 1405 1406 1407 1409 1410 1411 1413 1414 1415
1453 1446 1443 1440 1440 1439 1438 1437 1436 1434 1433 1431 1429 1427 1425 1422 1420 1418 1416 1414 1412 1411 1409 1407 1406 1405 1404 1404 1403 1402 1402 1402 1402 1402 1402 1403 1404 1405 1406 1408 1409 1410 1411 1412
1447 1442 1441 1438 1438 1437 1436 1434 1433 1432 1430 1429 1427 1425 1423 1420 1419 1416 1414 1412 1410 1409 1407 1406 1405 1404 1403 1402 1401 1400 1399 1399 1400 1400 1400 1401 1402 1404 1405 1406 1407 1408 1409 1411
1440 1438 1438 1436 1435 1435 1434 1432 1431 1429 1428 1426 1424 1422 1420 1418 1417 1415 1413 1411 1409 1407 1406 1404 1403 1402 1401 1400 1399 1398 1398 1397 1398 1398 1399 1400 1400 1401 1402 1404 1405 1406 1407 1408
1438 1437 1435 1434 1433 1432 1431 1430 1428 1426 1425 1423 1421 1420 1418 1416 1414 1413 1411 1410 1408 1406 1405 1403 1402 1401 1400 1399 1398 1397 1396 1396 1396 1396 1397 1398 1399 1400 1401 1401 1403 1404 1406 1407
1435 1435 1433 1432 1431 1429 1428 1427 1425 1423 1422 1420 1419 1417 1415 1414 1412 1411 1410 1408 1406 1405 1403 1402 1401 1400 1399 1398 1397 1396 1396 1395 1396 1396 1396 1397 1398 1399 1400 1401 1402 1403 1404 1405
1432 1431 1430 1429 1427 1426 1425 1424 1422 1420 1419 1417 1416 1415 1413 1412 1411 1409 1408 1406 1405 1403 1402 1401 1399 1398 1397 1396 1395 1395 1395 1395 1395 1395 1395 1396 1397 1398 1399 1399 1400 1401 1402 1403
1430 1428 1426 1425 1424 1423 1422 1421 1419 1418 1416 1415 1413 1412 1411 1410 1409 1407 1406 1405 1403 1402 1401 1400 1398 1397 1396 1395 1395 1394 1394 1394 1394 1394 1394 1395 1396 1397 1397 1398 1399 1400 1401 1402
1428 1426 1425 1423 1422 1420 1419 1418 1416 1415 1414 1412 1411 1410 1408 1407 1406 1405 1404 1403 1401 1400 1399 1398 1397 1396 1395 1394 1394 1393 1393 1393 1393 1393 1393 1394 1394 1395 1396 1397 1397 1398 1398 1399
1424 1423 1422 1420 1419 1418 1417 1415 1414 1412 1411 1410 1409 1407 1406 1405 1404 1403 1402 1401 1399 1398 1397 1397 1396 1394 1393 1393 1392 1392 1392 1392 1392 1392 1393 1393 1394 1394 1395 1395 1396 1396 1397 1397
1421 1420 1419 1417 1416 1415 1414 1412 1411 1410 1409 1407 1406 1405 1404 1403 1402 1401 1400 1399 1398 1397 1396 1395 1394 1393 1393 1392 1392 1391 1391 1391 1391 1391 1392 1392 1392 1393 1393 1394 1394 1395 1395 1395
1419 1418 1416 1415 1414 1413 1411 1410 1409 1407 1406 1405 1404 1403 1402 1401 1400 1399 1397 1396 1396 1396 1395 1394 1393 1392 1391 1391 1391 1390 1390 1390 1390 1390 1390 1391 1391 1391 1392 1392 1393 1393 1394 1394
1417 1416 1414 1413 1411 1410 1409 1408 1407 1405 1404 1403 1402 1401 1400 1399 1398 1397 1396 1396 1395 1394 1393 1392 1391 1391 1390 1390 1389 1389 1389 1389 1389 1389 1389 1389 1390 1390 1390 1391 1391 1392 1392 1393
1415 1413 1412 1410 1409 1408 1407 1406 1405 1403 1402 1401 1400 1399 1398 1397 1397 1395 1394 1394 1393 1392 1391 1391 1390 1389 1389 1389 1388 1388 1388 1388 1388 1388 1388 1388 1389 1389 1389 1390 1390 1390 1390 1391
1412 1410 1409 1408 1406 1405 1404 1403 1402 1401 1400 1399 1398 1397 1397 1395 1395 1394 1393 1392 1392 1391 1390 1389 1389 1388 1388 1388 1387 1387 1387 1387 1387 1387 1387 1387 1388 1388 1388 1388 1388 1389 1389 1390
1409 1407 1406 1405 1404 1402 1402 1401 1400 1399 1398 1397 1396 1396 1395 1394 1393 1392 1391 1390 1390 1389 1388 1388 1388 1387 1387 1387 1386 1386 1386 1386 1386 1387 1386 1386 1386 1387 1387 1387 1387 1388 1388 1389
1405 1404 1403 1402 1401 1400 1399 1398 1397 1396 1396 1395 1394 1394 1393 1392 1391 1390 1390 1389 1388 1388 1387 1387 1387 1386 1386 1386 1386 1386 1385 1386 1386 1386 1386 1386 1386 1386 1386 1386 1387 1387 1388 1388
1402 1401 1400 1399 1398 1397 1397 1396 1395 1394 1394 1393 1392 1391 1391 1390 1389 1389 1388 1388 1387 1386 1386 1386 1386 1386 1385 1385 1385 1385 1385 1385 1385 1385 1385 1385 1385 1385 1385 1386 1386 1386 1387 1388